Location: Ariel
(45.9570°N, 122.5700°W)
Time: 12:04:54
(UTC-07:00)

Transit 4A - Pass Details

Date: 22 July 2019
Orbit: 863 x 981 km, 66.8° (Epoch: 17 August)

Event Time Altitude Azimuth Distance (km) Brightness Sun altitude
Exits shadow 01:15:45 23° 117° (ESE) 1,955 9.3 -23.7°
Maximum altitude 01:16:36 23° 106° (ESE) 1,928 9.4 -23.7°
Drops below altitude 10° 01:21:29 10° 56° (NE) 2,740 10.8 -23.7°
Sets 01:24:34 0° 43° (NE) 3,692 11.8 -23.7°
